Temperature
22 22 21 21 20 21 23 24 24 24 24 23 23 22 22 21 20 19 19 20 20 20 20 20 20 19 19 19 19 19 19 19 19 19 19 19 19 19 19 19 19 19 19 18 18 18 18 18 18
22 22 21 21 21 21 23 24 24 24 24 24 23 22 22 21 20 19 19 20 20 20 20 20 20 19 19 19 19 19 19 19 19 19 19 19 19 19 19 19 19 18 18 18 18 18 18 18 18
23 22 21 20 22 22 24 24 24 25 24 24 23 22 22 21 20 20 20 20 20 20 20 20 19 19 19 19 19 19 19 19 19 19 19 19 19 19 19 19 18 18 18 18 18 18 18 18 18
23 22 22 21 23 25 25 25 25 25 24 24 23 22 21 21 21 20 20 20 20 20 20 20 19 19 19 19 19 19 19 19 19 19 19 19 19 19 19 18 18 18 18 18 18 18 18 18 18
23 22 21 22 24 25 25 26 25 25 24 23 22 21 21 21 21 20 20 20 20 20 20 20 19 19 19 19 19 19 19 19 19 19 19 19 19 18 19 18 18 18 18 18 18 18 18 18 18
23 22 22 22 25 26 26 26 25 25 24 23 22 21 21 21 21 20 20 20 20 20 20 20 19 19 19 19 19 19 19 19 19 19 19 19 19 19 19 18 18 18 18 18 18 18 18 18 18
23 22 23 24 25 25 26 26 25 24 24 23 23 21 21 21 21 21 20 20 20 20 20 20 19 19 19 19 19 19 19 19 19 19 19 19 19 19 19 19 18 18 18 18 18 18 18 18 18
25 22 23 24 25 25 26 26 26 25 24 23 23 21 21 21 21 21 20 20 20 20 20 20 20 19 19 19 19 19 19 19 19 19 19 19 19 19 19 18 18 18 18 18 18 18 18 18 18
25 22 23 24 25 25 27 26 26 25 24 24 23 22 21 21 21 20 20 20 20 20 20 20 19 19 19 19 19 19 19 19 19 19 18 18 19 19 18 18 18 18 18 18 18 18 18 18 18
25 22 24 26 26 26 26 26 26 25 24 23 22 22 22 21 21 20 20 20 20 19 19 19 19 19 19 19 19 19 19 19 19 18 18 18 18 18 18 18 18 18 18 18 18 18 18 18 18
26 25 26 27 27 27 26 26 26 24 23 23 22 22 21 21 21 20 20 20 20 20 20 19 19 19 19 19 19 19 19 19 18 18 18 18 18 18 18 18 18 18 18 18 18 18 18 18 18
27 27 28 28 28 27 27 26 26 25 24 24 23 22 22 21 21 21 20 20 20 20 20 19 19 19 19 19 19 19 19 19 18 18 18 18 18 18 18 18 18 18 18 18 18 18 18 18 18
27 27 28 28 28 28 27 26 26 25 24 24 23 22 22 22 21 21 21 20 20 20 20 19 19 19 19 19 19 19 19 19 18 18 18 18 18 18 18 18 18 18 18 18 18 18 18 18 18
28 28 28 28 28 28 27 26 25 24 24 23 23 22 22 22 21 21 21 20 20 20 20 20 19 19 19 19 19 19 19 18 18 18 18 18 18 18 18 18 18 18 18 18 18 18 18 18 18
29 27 27 27 28 27 26 25 25 25 24 24 23 23 22 22 22 21 21 21 20 20 20 20 19 19 19 19 19 19 19 19 18 18 18 18 18 18 18 18 18 18 18 18 18 18 18 18 18
27 26 26 27 27 27 25 24 25 25 24 24 23 23 22 22 22 22 21 21 21 20 20 20 19 19 19 19 19 19 19 19 19 18 18 18 18 18 18 18 18 18 18 18 18 18 18 18 18
25 25 26 27 27 27 25 24 25 25 25 24 24 23 23 22 22 22 22 21 21 21 20 20 20 19 19 19 19 19 19 19 19 18 18 18 18 18 18 18 18 18 18 18 18 18 18 18 18
25 26 26 26 27 27 25 24 25 25 25 24 24 23 23 22 22 22 22 21 21 21 20 20 20 20 19 19 19 19 19 19 19 18 18 18 18 18 18 18 18 18 18 18 18 18 18 18 18
27 27 26 27 28 27 25 25 25 25 25 24 24 23 23 23 23 22 22 22 21 21 21 20 20 20 20 19 19 19 19 19 19 19 18 18 18 18 18 18 18 18 18 18 18 18 18 18 18
27 27 26 27 28 27 25 25 25 25 25 25 24 24 23 23 22 22 22 22 21 21 21 20 20 20 20 19 19 19 19 19 19 19 18 18 18 18 18 18 18 18 18 18 18 18 18 18 18
27 27 27 27 27 26 25 24 24 25 25 25 25 24 24 23 23 22 22 22 22 21 21 21 20 20 20 20 19 19 19 19 19 19 19 19 18 18 18 18 18 18 18 18 18 18 18 18 17
26 28 28 28 25 24 25 23 23 23 24 24 24 24 24 23 23 23 22 22 22 22 21 21 20 20 20 20 20 19 19 19 19 19 19 18 18 18 18 18 18 18 18 18 18 18 17 17 18
27 29 28 27 25 24 24 23 22 23 23 23 23 24 24 24 24 23 23 23 22 22 21 21 21 20 20 20 20 19 19 19 19 19 19 19 18 18 18 18 18 18 18 18 18 18 18 18 17
29 27 26 24 22 23 24 23 23 22 23 23 24 24 24 24 24 24 23 23 22 22 21 21 21 20 20 20 20 20 19 19 19 19 19 19 19 19 18 18 18 18 18 18 18 18 18 18 17
27 24 23 23 22 22 23 23 23 24 24 24 24 25 25 24 24 24 23 23 22 22 22 21 21 21 20 20 20 20 20 19 19 19 19 19 19 19 19 18 18 18 18 18 18 18 18 17 17
26 24 23 23 22 22 23 23 23 25 25 26 26 26 25 25 24 24 24 23 23 22 22 22 21 21 21 20 20 20 20 20 19 19 19 19 19 19 19 18 18 18 18 18 18 18 18 17 17
26 24 23 21 22 22 22 23 24 25 24 25 25 25 24 24 24 24 24 23 23 23 22 22 22 21 21 21 20 20 20 20 20 19 19 19 19 18 18 18 18 18 18 18 18 18 18 17 17
26 24 21 21 22 22 22 22 22 23 23 23 23 23 24 24 24 24 24 24 23 23 23 22 22 22 21 21 20 20 20 20 20 19 19 19 19 18 18 18 18 18 18 18 18 18 18 17 17
26 25 22 20 20 21 21 22 23 23 23 22 23 23 24 24 24 24 24 23 23 23 22 22 22 22 21 21 20 20 20 20 20 19 19 19 19 18 18 18 18 18 18 18 17 17 17 17 17
26 24 22 22 21 20 20 21 24 23 23 23 23 23 24 24 24 24 23 23 23 22 22 22 22 21 21 21 20 20 20 20 20 19 19 19 19 18 18 18 18 18 17 17 17 17 17 17 17
Wind_Speed
10 8 3 1 2 4 4 4 6 7 6 9 11 10 9 6 4 4 2 6 7 4 5 8 8 8 9 9 8 8 8 9 9 10 10 10 10 11 12 13 14 14 14 14 13 13 13 12 11
7 5 2 1 3 4 3 5 8 9 9 10 11 11 9 7 6 6 4 6 7 6 6 8 9 9 9 9 9 9 9 9 9 10 10 9 10 11 12 13 13 13 13 13 12 13 12 11 11
5 4 1 2 2 4 5 7 9 10 9 8 6 7 5 4 5 4 6 9 7 6 7 9 10 10 10 10 9 9 10 10 9 9 10 9 9 10 11 12 12 12 12 12 12 12 11 10 10
2 1 2 3 3 3 6 7 9 10 9 9 8 7 4 4 4 7 10 10 8 6 7 9 11 10 10 10 10 10 10 9 9 9 9 9 9 9 10 10 11 11 11 10 10 10 10 9 9
2 2 3 3 3 5 6 8 9 9 6 9 10 8 5 4 10 11 10 10 9 6 6 9 11 10 10 10 10 10 10 9 9 9 9 8 8 9 10 10 10 10 10 9 9 9 9 8 8
1 2 3 3 5 6 6 7 9 13 12 11 10 8 4 6 10 10 10 9 8 7 6 8 10 10 9 10 10 11 10 9 9 8 8 7 7 8 9 8 8 9 9 9 8 8 8 8 7
2 2 2 3 5 6 7 6 8 10 11 7 8 6 4 5 8 9 9 8 8 7 6 5 7 7 8 9 10 10 10 9 8 8 8 7 8 9 8 8 8 8 8 7 7 6 6 6 6
3 2 1 2 5 5 7 6 8 11 9 9 7 7 5 6 8 9 9 9 8 6 5 4 4 5 5 6 8 9 9 8 8 8 8 8 8 8 8 7 7 7 6 5 5 4 5 6 6
2 3 2 3 5 5 8 9 7 8 10 6 6 7 9 10 11 10 9 7 6 6 4 4 4 4 4 5 6 6 7 6 6 7 8 7 4 4 5 6 6 6 6 5 3 3 3 4 5
4 4 5 5 5 6 8 10 8 7 10 8 10 11 11 11 11 10 9 7 6 6 4 4 4 3 3 4 4 3 4 4 4 4 5 4 3 3 3 3 4 5 5 4 3 3 2 2 3
4 4 3 3 5 7 8 8 6 10 8 10 14 14 12 11 9 9 8 7 7 6 6 4 3 3 3 3 3 2 2 2 3 4 4 4 3 2 1 1 1 2 3 3 3 2 2 2 2
4 3 4 4 6 6 7 7 7 8 9 13 15 15 12 11 9 9 8 7 7 7 5 4 4 3 3 3 3 2 2 2 2 3 4 3 2 2 2 2 1 1 2 2 1 1 1 2 2
4 2 4 5 6 6 8 9 9 9 13 14 15 14 12 11 9 8 8 8 8 7 5 4 4 3 3 3 2 3 2 2 3 3 4 4 3 3 3 2 2 1 2 2 1 1 1 2 1
4 3 3 5 7 7 10 8 8 10 14 14 14 12 11 11 10 8 8 7 7 7 6 4 4 4 4 3 2 2 2 2 3 3 4 5 4 3 3 2 2 2 2 2 2 2 1 1 1
3 3 2 2 6 6 10 5 8 12 14 13 13 12 12 10 10 10 10 9 8 7 6 5 5 4 4 3 2 3 2 3 2 2 4 5 5 4 3 2 2 1 1 2 2 2 1 1 1
3 3 0 3 5 6 9 6 8 13 14 13 12 12 12 10 10 10 10 9 8 7 6 5 6 5 4 3 2 2 3 3 2 2 4 5 5 4 3 3 2 1 1 1 2 2 2 2 1
3 1 3 3 4 5 6 6 9 11 13 12 11 11 12 10 9 9 10 10 9 8 7 6 5 5 3 2 2 2 2 2 2 2 3 3 4 4 3 2 1 2 2 1 1 2 1 1 1
4 3 3 4 4 4 4 6 10 11 12 12 11 11 12 12 11 11 10 10 9 8 8 7 5 5 4 2 2 2 2 1 1 1 2 2 2 3 3 1 1 2 2 2 2 1 1 1 0
5 2 3 5 5 4 6 7 10 11 10 10 10 11 11 11 10 10 11 10 9 8 7 7 6 5 3 2 2 1 1 0 0 1 2 1 2 2 2 2 1 2 2 1 1 1 2 1 1
4 2 2 1 3 4 5 5 8 10 12 13 14 13 12 10 9 10 10 10 9 9 8 7 7 5 4 3 3 2 2 1 1 0 1 2 2 2 2 2 2 1 1 1 1 1 1 0 1
4 4 5 4 1 4 6 1 3 5 6 9 10 12 12 14 13 12 11 10 10 9 9 9 7 6 5 4 2 2 2 2 1 1 0 1 2 2 2 2 2 1 2 1 1 1 2 1 2
4 4 4 4 3 1 4 2 5 4 5 7 8 9 12 13 12 12 12 11 10 10 8 8 7 6 5 5 4 4 3 2 2 2 1 1 1 2 2 2 2 2 1 1 1 1 1 2 1
5 3 3 3 3 2 2 4 5 2 5 7 9 11 12 13 14 14 13 12 11 10 9 7 7 6 5 5 5 4 3 3 2 1 1 2 1 1 2 2 2 2 1 1 1 1 1 1 1
3 3 5 5 5 2 3 4 5 6 10 8 10 12 12 12 12 11 10 9 8 8 8 8 7 6 6 5 5 5 5 3 2 2 2 1 1 1 1 1 2 2 2 2 1 1 1 1 1
3 5 4 5 5 3 4 2 6 7 8 11 12 13 12 12 12 11 11 11 10 10 9 8 8 7 6 6 5 5 5 4 4 3 3 2 1 1 2 1 1 1 2 2 1 1 1 0 0
2 7 7 3 3 3 4 2 6 4 5 7 9 11 11 11 11 12 12 13 12 12 10 9 8 7 6 6 6 5 4 3 3 3 3 3 2 2 2 1 1 1 1 1 1 1 1 0 0
1 2 7 7 2 1 3 3 5 3 2 3 6 9 11 11 11 11 11 11 12 12 11 10 9 7 6 6 6 5 4 4 4 3 2 2 2 1 1 1 1 1 1 1 1 1 1 0 0
5 6 6 5 4 1 3 3 4 3 1 2 4 7 9 10 9 8 8 10 10 11 10 9 9 8 7 6 5 5 5 5 4 3 2 2 2 1 2 2 1 1 1 1 1 1 0 0 1
1 2 5 5 6 6 2 6 6 7 5 5 5 6 8 9 9 9 8 7 7 7 8 8 8 6 6 6 5 4 4 4 3 3 3 2 2 2 2 2 1 1 1 1 1 1 1 1 1
4 4 6 5 2 4 5 6 5 5 5 5 5 5 6 7 8 7 6 6 6 6 7 7 7 6 6 5 4 4 3 3 3 3 3 2 2 2 2 1 1 2 1 1 2 2 1 1 2
Wind_Direction
170 166 165 178 38 47 67 78 91 77 61 65 75 81 79 63 90 128 180 144 137 134 128 112 106 105 103 103 104 106 109 114 118 117 115 115 116 123 128 130 133 134 135 136 139 142 143 141 140
163 166 170 35 66 73 63 86 85 88 114 106 84 81 78 70 87 114 132 146 135 130 124 114 107 103 100 99 100 102 106 112 119 120 121 121 120 124 129 132 134 136 138 140 142 145 146 147 145
176 180 138 53 75 118 110 109 108 100 100 91 83 65 68 90 106 133 153 145 128 120 123 118 107 101 96 95 98 101 106 113 118 121 123 125 124 126 131 133 136 139 142 144 146 148 149 150 152
146 113 37 56 82 111 120 126 119 105 85 77 89 72 66 96 121 135 138 135 123 120 126 120 110 103 97 96 99 102 107 114 118 121 125 128 128 131 134 135 140 143 144 147 148 149 151 155 157
121 95 53 54 79 89 108 123 116 103 94 91 91 91 79 79 110 124 129 130 124 119 122 121 112 105 100 100 101 101 106 111 115 117 123 129 134 134 137 140 144 147 149 149 149 151 154 161 163
83 83 70 82 94 92 95 108 106 100 106 105 99 101 94 105 111 118 121 124 123 123 120 121 112 108 107 106 106 105 107 111 115 117 119 126 139 147 149 148 148 149 152 154 157 161 166 174 175
117 91 138 128 109 107 116 115 109 113 110 107 116 100 112 108 120 119 115 115 115 117 112 110 119 116 112 112 111 110 108 108 113 119 123 127 138 152 153 153 156 156 159 165 165 169 181 187 187
160 98 63 113 116 120 131 108 114 117 110 121 113 119 142 151 128 114 106 103 105 108 108 107 111 114 119 121 116 113 109 109 108 111 119 122 131 144 155 159 159 156 162 167 173 187 194 195 192
129 87 148 161 144 148 135 109 97 95 105 102 96 120 142 137 121 109 100 93 99 107 104 102 103 113 124 123 114 118 115 112 109 114 121 124 117 134 153 158 157 157 150 160 170 168 180 186 176
134 143 191 181 164 153 138 125 123 104 100 96 102 114 125 124 121 121 121 119 115 118 119 110 110 118 121 112 113 117 115 120 114 115 122 122 115 120 123 145 141 149 147 141 124 103 104 135 143
152 166 164 150 146 140 131 127 119 122 123 140 138 139 136 127 125 128 131 134 129 129 122 119 120 118 113 102 118 114 112 122 124 115 122 123 115 116 104 110 112 126 123 107 95 85 89 119 145
136 155 144 148 137 125 129 125 114 129 149 149 144 143 139 136 137 138 133 132 123 119 120 115 107 104 107 118 120 120 118 116 122 135 128 139 127 108 121 122 114 112 120 126 113 104 111 128 144
114 140 135 134 121 124 114 116 116 125 136 138 138 141 143 144 141 138 135 130 124 124 123 123 114 100 97 102 112 108 105 115 130 134 131 135 122 110 115 122 135 135 128 125 118 111 100 124 164
163 155 146 134 126 126 115 113 110 138 141 142 144 145 150 150 146 138 137 132 133 136 137 129 115 105 100 94 90 105 122 120 114 120 120 124 131 118 112 98 104 108 129 148 137 116 113 139 144
119 89 23 143 134 137 111 95 140 153 147 147 151 151 150 152 149 152 155 151 150 149 145 137 130 114 102 94 95 106 122 121 116 116 108 120 127 128 121 103 92 89 125 120 103 86 74 85 83
47 64 73 243 156 155 121 160 173 160 152 153 159 156 154 158 159 159 156 151 149 146 143 146 134 118 106 103 100 103 107 113 118 121 114 119 128 132 121 107 113 136 119 90 96 87 67 46 46
16 223 229 250 191 156 135 171 177 167 158 162 166 161 159 161 161 161 161 157 153 151 146 144 136 133 124 111 97 96 101 107 112 113 118 122 118 118 120 115 124 117 88 72 92 81 101 82 24
244 234 235 223 211 151 152 175 174 174 168 170 171 164 165 168 172 167 164 160 156 153 148 149 145 144 137 113 84 59 64 77 107 115 126 120 122 123 122 122 98 101 88 68 72 81 77 108 35
238 207 236 241 200 165 173 169 181 178 174 174 175 172 173 176 173 165 165 162 157 155 151 154 153 158 144 127 127 131 153 203 226 195 146 143 142 129 120 106 89 103 110 119 107 99 72 38 60
248 201 237 253 200 152 157 174 182 180 185 182 178 177 174 166 165 170 169 168 166 167 163 160 165 167 168 172 172 169 167 192 196 211 144 168 161 160 138 134 123 123 113 68 85 113 88 324 88
266 213 206 200 71 72 113 44 202 202 192 186 182 178 172 172 174 175 175 176 171 173 173 172 174 173 176 171 141 114 75 38 28 13 298 240 177 164 159 148 147 150 151 179 203 161 150 223 290
288 252 186 160 112 230 134 168 254 207 200 193 190 177 174 174 174 175 176 177 179 180 173 169 172 174 175 161 151 153 160 180 212 213 218 242 207 175 162 168 161 161 151 175 227 170 165 159 264
241 257 129 129 114 74 61 124 261 196 197 207 200 187 179 175 174 176 179 181 180 177 173 171 169 174 175 162 160 158 169 188 197 190 200 225 237 207 190 171 159 154 153 165 145 117 128 153 177
222 38 46 50 69 34 267 146 239 213 199 198 200 191 181 175 175 177 176 169 169 170 171 172 172 178 175 170 169 167 174 176 173 197 205 223 231 243 226 170 172 178 164 166 156 141 131 148 160
34 74 34 6 14 267 284 145 240 229 203 195 189 185 176 168 172 175 176 173 172 172 173 174 174 177 178 176 183 184 183 177 186 193 194 193 208 221 237 200 188 194 190 172 149 134 162 169 164
233 133 150 181 215 281 338 273 264 244 205 190 178 165 160 164 172 175 181 180 180 179 175 172 170 176 179 184 194 193 182 178 191 196 191 200 207 214 211 185 186 191 180 167 143 144 201 181 254
146 137 161 139 147 81 308 313 323 4 86 144 141 144 159 169 171 175 180 178 177 176 178 174 173 178 182 184 187 188 189 186 196 202 196 208 214 208 181 176 188 200 181 172 147 161 216 168 269
144 152 91 107 139 199 286 263 227 251 203 144 139 147 163 170 169 173 178 181 180 180 178 173 175 181 185 184 186 192 199 198 195 189 191 200 205 199 183 187 182 182 204 158 141 171 214 107 300
13 70 103 118 145 149 209 268 224 203 184 169 168 167 165 163 168 172 173 168 165 168 171 173 174 175 179 186 190 185 194 192 180 183 193 188 185 190 193 190 177 175 201 198 174 208 197 208 289
168 176 145 143 197 154 159 262 283 182 164 148 152 154 156 158 162 157 153 150 153 163 169 169 170 177 187 185 185 191 191 186 185 196 200 195 194 188 184 171 179 204 215 211 199 220 223 221 250
Height
1511 1511 1511 1512 1514 1519 1519 1511 1505 1504 1505 1506 1505 1506 1509 1512 1516 1522 1519 1516 1515 1514 1512 1511 1510 1509 1508 1507 1506 1506 1506 1506 1506 1507 1507 1507 1506 1506 1507 1508 1511 1513 1514 1516 1517 1519 1521 1522 1523
1511 1512 1513 1513 1518 1529 1522 1510 1508 1506 1507 1506 1507 1509 1510 1514 1515 1516 1516 1517 1516 1514 1513 1512 1511 1510 1509 1508 1507 1507 1507 1507 1507 1508 1508 1508 1508 1508 1508 1510 1512 1514 1515 1517 1518 1520 1521 1522 1524
1512 1512 1514 1514 1520 1524 1520 1509 1507 1507 1507 1506 1509 1511 1513 1516 1517 1517 1517 1517 1517 1516 1515 1513 1512 1511 1510 1509 1508 1508 1508 1508 1508 1509 1509 1510 1510 1510 1511 1512 1513 1515 1516 1517 1519 1520 1521 1523 1524
1512 1513 1514 1518 1519 1511 1509 1507 1506 1507 1508 1508 1509 1514 1516 1518 1518 1518 1518 1518 1518 1517 1516 1515 1514 1513 1512 1511 1510 1509 1509 1509 1510 1510 1510 1511 1511 1512 1513 1514 1515 1516 1517 1518 1519 1520 1522 1523 1524
1512 1514 1518 1522 1516 1509 1506 1506 1505 1506 1509 1512 1511 1516 1519 1520 1519 1519 1520 1520 1519 1518 1517 1517 1516 1514 1513 1512 1511 1511 1511 1511 1511 1511 1512 1512 1512 1513 1514 1515 1516 1517 1518 1519 1520 1521 1522 1523 1524
1513 1514 1524 1527 1517 1509 1508 1507 1507 1509 1512 1514 1515 1517 1522 1522 1521 1521 1521 1521 1521 1520 1519 1518 1517 1516 1515 1514 1513 1513 1512 1512 1512 1512 1512 1512 1512 1513 1515 1516 1517 1518 1519 1520 1520 1521 1521 1522 1524
1513 1516 1522 1520 1517 1513 1509 1508 1508 1510 1512 1515 1516 1519 1523 1524 1523 1523 1523 1522 1522 1522 1521 1520 1519 1519 1518 1516 1516 1515 1514 1514 1514 1514 1513 1512 1512 1513 1515 1517 1518 1519 1520 1520 1520 1520 1520 1521 1523
1510 1515 1519 1518 1517 1514 1509 1507 1509 1510 1513 1516 1516 1519 1522 1524 1524 1524 1524 1524 1523 1523 1523 1522 1521 1520 1520 1518 1518 1517 1517 1516 1516 1515 1514 1514 1513 1514 1516 1517 1518 1519 1520 1521 1520 1519 1517 1518 1522
1510 1518 1523 1518 1515 1512 1508 1509 1512 1512 1514 1516 1517 1518 1521 1524 1524 1525 1525 1525 1525 1524 1524 1524 1523 1522 1521 1520 1520 1520 1519 1519 1518 1518 1517 1517 1516 1517 1517 1518 1519 1520 1521 1521 1521 1519 1517 1518 1522
1509 1519 1515 1507 1507 1508 1508 1508 1511 1514 1516 1518 1520 1522 1523 1524 1525 1525 1525 1525 1526 1526 1526 1526 1525 1524 1523 1523 1522 1522 1521 1521 1521 1520 1520 1520 1519 1520 1520 1520 1520 1521 1522 1523 1522 1521 1520 1521 1524
1506 1509 1505 1504 1504 1505 1507 1509 1511 1513 1518 1518 1519 1522 1524 1525 1525 1525 1526 1526 1526 1527 1527 1527 1526 1526 1525 1525 1525 1524 1524 1523 1523 1523 1523 1522 1522 1522 1522 1523 1523 1523 1524 1524 1524 1524 1524 1525 1526
1504 1503 1503 1504 1504 1506 1507 1509 1512 1513 1516 1517 1519 1521 1523 1525 1526 1526 1527 1527 1528 1528 1528 1528 1528 1527 1527 1527 1527 1526 1526 1526 1525 1525 1525 1525 1524 1524 1525 1525 1525 1525 1525 1526 1526 1526 1526 1527 1528
1502 1503 1502 1503 1504 1505 1507 1509 1512 1515 1517 1519 1520 1522 1523 1525 1526 1528 1528 1529 1529 1529 1529 1529 1529 1529 1529 1528 1528 1528 1528 1528 1528 1527 1527 1527 1526 1526 1527 1527 1527 1527 1528 1528 1528 1528 1529 1529 1530
1502 1502 1503 1503 1505 1506 1508 1511 1513 1517 1518 1520 1521 1522 1524 1525 1527 1528 1529 1529 1530 1530 1530 1530 1530 1531 1530 1530 1530 1530 1530 1530 1530 1529 1529 1529 1529 1529 1529 1529 1529 1529 1529 1530 1530 1530 1530 1531 1531
1501 1504 1504 1504 1504 1507 1510 1516 1515 1516 1518 1520 1521 1523 1524 1526 1527 1528 1529 1530 1530 1531 1531 1531 1532 1532 1532 1532 1532 1532 1532 1532 1532 1532 1531 1531 1531 1531 1531 1531 1531 1531 1531 1531 1531 1531 1531 1531 1532
1504 1510 1516 1507 1504 1507 1513 1525 1516 1516 1517 1519 1522 1523 1525 1526 1527 1528 1529 1530 1531 1532 1532 1532 1533 1533 1533 1533 1534 1533 1534 1533 1533 1533 1533 1533 1533 1533 1533 1532 1532 1533 1533 1533 1533 1533 1533 1533 1533
1513 1521 1519 1510 1503 1505 1511 1520 1515 1516 1517 1519 1521 1522 1524 1526 1527 1528 1530 1530 1531 1532 1532 1533 1533 1534 1534 1535 1535 1535 1535 1535 1535 1535 1535 1535 1534 1534 1534 1534 1534 1534 1534 1534 1534 1534 1534 1533 1533
1521 1519 1516 1513 1504 1504 1511 1514 1513 1515 1516 1517 1520 1521 1523 1524 1526 1528 1529 1530 1531 1532 1532 1533 1533 1534 1535 1535 1536 1536 1536 1536 1536 1536 1536 1536 1536 1535 1535 1535 1535 1534 1534 1534 1534 1534 1534 1533 1533
1508 1511 1514 1508 1500 1505 1511 1513 1513 1513 1515 1517 1518 1520 1522 1523 1526 1527 1529 1530 1531 1532 1532 1533 1533 1534 1535 1535 1536 1536 1537 1537 1537 1537 1537 1537 1537 1536 1536 1536 1535 1535 1534 1534 1534 1534 1533 1533 1533
1504 1510 1512 1506 1500 1505 1512 1514 1511 1511 1512 1513 1515 1517 1519 1522 1525 1527 1528 1529 1530 1531 1532 1533 1533 1534 1535 1535 1536 1537 1537 1537 1537 1537 1537 1537 1537 1537 1537 1536 1536 1535 1535 1534 1534 1534 1533 1533 1533
1504 1508 1508 1508 1503 1505 1513 1522 1517 1513 1512 1512 1513 1515 1517 1519 1522 1524 1526 1527 1529 1530 1531 1532 1533 1534 1534 1535 1536 1537 1537 1537 1537 1537 1537 1537 1537 1537 1536 1536 1536 1535 1535 1534 1534 1533 1533 1533 1533
1509 1496 1497 1501 1513 1524 1518 1539 1524 1516 1513 1512 1512 1514 1515 1517 1519 1522 1524 1526 1527 1529 1530 1531 1532 1533 1534 1535 1535 1536 1536 1536 1537 1537 1537 1537 1537 1537 1536 1536 1535 1535 1534 1534 1533 1533 1533 1533 1532
1499 1491 1495 1501 1513 1523 1522 1535 1530 1517 1517 1513 1510 1511 1513 1515 1517 1519 1521 1523 1526 1527 1529 1530 1531 1532 1533 1534 1535 1535 1535 1536 1536 1537 1537 1536 1536 1536 1536 1535 1534 1534 1533 1533 1532 1532 1532 1532 1532
1490 1496 1501 1510 1522 1539 1527 1533 1533 1519 1512 1508 1508 1509 1510 1513 1516 1518 1520 1522 1524 1526 1528 1529 1530 1531 1532 1533 1533 1534 1534 1535 1535 1535 1535 1535 1535 1535 1534 1534 1534 1533 1533 1532 1532 1531 1531 1531 1530
1495 1514 1536 1540 1548 1545 1525 1528 1526 1506 1502 1501 1502 1505 1508 1510 1513 1516 1518 1520 1522 1524 1525 1527 1528 1529 1530 1531 1532 1533 1533 1534 1534 1534 1534 1534 1534 1533 1533 1533 1533 1532 1532 1531 1531 1530 1530 1530 1529
1499 1511 1537 1550 1553 1544 1529 1531 1516 1500 1498 1498 1499 1502 1506 1508 1511 1513 1515 1517 1519 1522 1523 1525 1526 1527 1529 1530 1531 1532 1532 1533 1533 1533 1533 1533 1533 1533 1533 1533 1532 1531 1531 1530 1530 1529 1529 1528 1528
1499 1508 1511 1531 1538 1546 1539 1526 1511 1500 1500 1500 1501 1502 1505 1507 1509 1511 1513 1516 1517 1520 1521 1523 1525 1526 1527 1528 1529 1530 1531 1531 1532 1532 1532 1532 1532 1532 1532 1532 1531 1531 1530 1529 1529 1528 1527 1527 1526
1492 1499 1515 1530 1546 1553 1543 1534 1527 1511 1505 1503 1503 1502 1504 1505 1508 1510 1512 1514 1516 1518 1520 1522 1523 1525 1526 1527 1528 1529 1529 1530 1530 1531 1531 1531 1531 1531 1531 1530 1530 1530 1529 1528 1527 1526 1526 1525 1525
1497 1502 1512 1527 1532 1548 1553 1539 1507 1505 1502 1502 1502 1502 1503 1504 1506 1508 1510 1512 1514 1517 1518 1520 1522 1523 1525 1526 1526 1527 1528 1529 1529 1529 1530 1530 1529 1529 1529 1529 1528 1528 1527 1527 1526 1525 1524 1524 1523
1490 1498 1508 1525 1531 1535 1543 1536 1499 1499 1499 1499 1501 1502 1503 1504 1505 1507 1510 1512 1514 1515 1516 1518 1520 1521 1523 1524 1525 1526 1526 1527 1527 1527 1528 1528 1528 1528 1527 1527 1526 1526 1525 1525 1524 1523 1523 1522 1521